User: anonymous   Login
Location: Unspecified
(0.0000°N, 0.0000°E)
Time: 21:07:44
(UTC+00:00)
Language:

BEESAT 3 - Orbit

View from above orbital plane
View from above orbital plane
View from above satellite
View from above satellite

Ground track
Ground track

The orbit data is extracted from the following two-line orbital elements,

1 39134U 13015E   18173.20304610  .00001242  00000-0  68167-4 0  9997
2 39134  64.8637 110.6841 0012396 214.7471 145.2848 15.19191461285661
Epoch (UTC): 22 June 2018 04:52:23
Eccentricity: 0.0012396
inclination: 64.8637°
perigee height: 500 km
apogee height: 517 km
right ascension of ascending node: 110.6841°
argument of perigee: 214.7471°
revolutions per day: 15.19191461
mean anomaly at epoch: 145.2848°
orbit number at epoch: 28566

The dashed part of the orbit path shows where the satellite is in the earth's shadow,  

DLR